Time,TemperatureF,DewpointF,PressureIn,WindDirection,WindDirectionDegrees,WindSpeedMPH,WindSpeedGustMPH,Humidity,HourlyPrecipIn,Conditions,Clouds,dailyrainin,SoftwareType,DateUTC
2013-09-24 00:02:00,76.1,76.0,29.87,SSE,148,0.0,-999.0,100,-99.99,,,0.00,weatherlink.com 1.10,2013-09-24 04:02:00,
2013-09-24 00:17:00,76.1,76.0,29.87,South,173,0.0,-999.0,100,-99.99,,,0.00,weatherlink.com 1.10,2013-09-24 04:17:00,
2013-09-24 01:17:00,76.8,77.0,29.86,SW,229,0.0,-999.0,100,-99.99,,,0.00,weatherlink.com 1.10,2013-09-24 05:17:00,
2013-09-24 01:32:00,76.8,77.0,29.86,SW,217,5.0,-999.0,100,-99.99,,,0.00,weatherlink.com 1.10,2013-09-24 05:32:00,
2013-09-24 01:47:00,76.8,77.0,29.86,SW,224,1.0,-999.0,100,-99.99,,,0.00,weatherlink.com 1.10,2013-09-24 05:47:00,
2013-09-24 02:02:00,76.8,77.0,29.86,SSW,209,1.0,-999.0,100,-99.99,,,0.00,weatherlink.com 1.10,2013-09-24 06:02:00,
2013-09-24 02:17:00,76.8,77.0,29.85,SSW,207,2.0,-999.0,100,-99.99,,,0.00,weatherlink.com 1.10,2013-09-24 06:17:00,
2013-09-24 02:32:00,76.7,77.0,29.85,SSW,210,0.0,-999.0,100,-99.99,,,0.00,weatherlink.com 1.10,2013-09-24 06:32:00,
2013-09-24 03:17:00,77.0,77.0,29.84,SSW,199,2.0,-999.0,100,-99.99,,,0.00,weatherlink.com 1.10,2013-09-24 07:17:00,
2013-09-24 03:32:00,76.7,77.0,29.85,SSW,197,2.0,-999.0,100,-99.99,,,0.00,weatherlink.com 1.10,2013-09-24 07:32:00,
2013-09-24 03:47:00,76.7,77.0,29.84,SSW,205,2.0,-999.0,100,-99.99,,,0.00,weatherlink.com 1.10,2013-09-24 07:47:00,
2013-09-24 04:02:00,76.7,77.0,29.84,SW,218,0.0,-999.0,100,-99.99,,,0.00,weatherlink.com 1.10,2013-09-24 08:02:00,
2013-09-24 04:17:00,77.0,77.0,29.84,SSW,208,3.0,-999.0,100,-99.99,,,0.00,weatherlink.com 1.10,2013-09-24 08:17:00,
2013-09-24 04:32:00,77.0,77.0,29.83,SSW,210,1.0,-999.0,100,-99.99,,,0.00,weatherlink.com 1.10,2013-09-24 08:32:00,
2013-09-24 04:47:00,77.0,77.0,29.83,SW,217,0.0,-999.0,100,-99.99,,,0.00,weatherlink.com 1.10,2013-09-24 08:47:00,
2013-09-24 05:17:00,77.2,77.0,29.83,SSE,154,1.0,-999.0,100,-99.99,,,0.00,weatherlink.com 1.10,2013-09-24 09:17:00,
2013-09-24 05:32:00,76.7,77.0,29.83,ESE,116,4.0,-999.0,100,-99.99,,,0.00,weatherlink.com 1.10,2013-09-24 09:32:00,
2013-09-24 05:47:00,76.8,77.0,29.83,North,-999,0.0,-999.0,100,-99.99,,,0.00,weatherlink.com 1.10,2013-09-24 09:47:00,
2013-09-24 06:02:00,76.7,77.0,29.83,SW,214,0.0,-999.0,100,-99.99,,,0.00,weatherlink.com 1.10,2013-09-24 10:02:00,
2013-09-24 06:32:00,76.7,77.0,29.83,SSW,202,4.0,-999.0,100,-99.99,,,0.00,weatherlink.com 1.10,2013-09-24 10:32:00,
2013-09-24 07:17:00,77.0,77.0,29.84,SW,215,0.0,-999.0,100,-99.99,,,0.00,weatherlink.com 1.10,2013-09-24 11:17:00,
2013-09-24 07:32:00,77.0,77.0,29.84,SW,215,0.0,-999.0,100,-99.99,,,0.00,weatherlink.com 1.10,2013-09-24 11:32:00,
2013-09-24 08:17:00,77.4,77.0,29.86,SW,214,1.0,-999.0,100,-99.99,,,0.00,weatherlink.com 1.10,2013-09-24 12:17:00,
2013-09-24 09:02:00,77.7,78.0,29.88,SSW,206,1.0,-999.0,100,-99.99,,,0.00,weatherlink.com 1.10,2013-09-24 13:02:00,
2013-09-24 09:48:00,78.3,78.0,29.87,SW,232,2.0,-999.0,100,-99.99,,,0.00,weatherlink.com 1.10,2013-09-24 13:48:00,
2013-09-24 10:48:00,79.4,79.0,29.86,SSW,212,0.0,-999.0,100,-99.99,,,0.00,weatherlink.com 1.10,2013-09-24 14:48:00,
2013-09-24 11:33:00,80.7,80.0,29.86,SSW,212,0.0,-999.0,99,-99.99,,,0.00,weatherlink.com 1.10,2013-09-24 15:33:00,
2013-09-24 11:48:00,80.9,80.0,29.86,SW,224,2.0,-999.0,97,-99.99,,,0.00,weatherlink.com 1.10,2013-09-24 15:48:00,
2013-09-24 13:04:00,84.0,81.0,29.83,SSW,209,2.0,-999.0,91,-99.99,,,0.00,weatherlink.com 1.10,2013-09-24 17:04:00,
2013-09-24 13:18:00,84.1,81.0,29.83,SW,236,2.0,-999.0,91,-99.99,,,0.00,weatherlink.com 1.10,2013-09-24 17:18:00,
2013-09-24 13:33:00,84.0,80.0,29.82,WSW,238,0.0,-999.0,88,-99.99,,,0.00,weatherlink.com 1.10,2013-09-24 17:33:00,
2013-09-24 14:03:00,84.3,80.0,29.80,SW,236,3.0,-999.0,87,-99.99,,,0.00,weatherlink.com 1.10,2013-09-24 18:03:00,
2013-09-24 14:18:00,84.5,80.0,29.80,WSW,248,4.0,-999.0,86,-99.99,,,0.00,weatherlink.com 1.10,2013-09-24 18:18:00,
2013-09-24 14:33:00,84.9,80.0,29.80,WSW,251,3.0,-999.0,84,-99.99,,,0.00,weatherlink.com 1.10,2013-09-24 18:33:00,
2013-09-24 14:48:00,84.5,80.0,29.79,WSW,245,2.0,-999.0,86,-99.99,,,0.00,weatherlink.com 1.10,2013-09-24 18:48:00,
2013-09-24 15:03:00,83.0,80.0,29.80,WSW,240,5.0,-999.0,91,-99.99,,,0.00,weatherlink.com 1.10,2013-09-24 19:03:00,
2013-09-24 15:33:00,78.3,77.0,29.80,SW,224,1.0,-999.0,97,-99.99,,,0.00,weatherlink.com 1.10,2013-09-24 19:33:00,
2013-09-24 15:48:00,78.6,78.0,29.78,SW,234,3.0,-999.0,97,-99.99,,,0.00,weatherlink.com 1.10,2013-09-24 19:48:00,
2013-09-24 16:03:00,79.6,78.0,29.78,WSW,238,3.0,-999.0,96,-99.99,,,0.00,weatherlink.com 1.10,2013-09-24 20:03:00,
2013-09-24 16:48:00,82.2,80.0,29.78,WSW,248,6.0,-999.0,94,-99.99,,,0.00,weatherlink.com 1.10,2013-09-24 20:48:00,
2013-09-24 17:03:00,82.4,79.0,29.77,WSW,248,6.0,-999.0,90,-99.99,,,0.00,weatherlink.com 1.10,2013-09-24 21:03:00,
2013-09-24 17:18:00,82.4,80.0,29.77,WSW,247,7.0,-999.0,91,-99.99,,,0.00,weatherlink.com 1.10,2013-09-24 21:18:00,
2013-09-24 17:33:00,82.2,79.0,29.77,WSW,244,6.0,-999.0,91,-99.99,,,0.00,weatherlink.com 1.10,2013-09-24 21:33:00,
2013-09-24 17:49:00,82.2,79.0,29.77,SW,233,4.0,-999.0,90,-99.99,,,0.00,weatherlink.com 1.10,2013-09-24 21:49:00,
2013-09-24 18:03:00,82.4,80.0,29.77,WSW,245,6.0,-999.0,91,-99.99,,,0.00,weatherlink.com 1.10,2013-09-24 22:03:00,
2013-09-24 18:18:00,82.0,79.0,29.77,WSW,239,10.0,-999.0,89,-99.99,,,0.00,weatherlink.com 1.10,2013-09-24 22:18:00,
2013-09-24 18:34:00,81.2,79.0,29.77,WSW,247,7.0,-999.0,92,-99.99,,,0.00,weatherlink.com 1.10,2013-09-24 22:34:00,
2013-09-24 18:48:00,80.7,78.0,29.77,WSW,237,5.0,-999.0,92,-99.99,,,0.00,weatherlink.com 1.10,2013-09-24 22:48:00,
2013-09-24 19:04:00,80.1,77.0,29.77,WSW,237,6.0,-999.0,91,-99.99,,,0.00,weatherlink.com 1.10,2013-09-24 23:04:00,
2013-09-24 19:19:00,79.6,77.0,29.77,WSW,243,5.0,-999.0,91,-99.99,,,0.00,weatherlink.com 1.10,2013-09-24 23:19:00,
2013-09-24 19:34:00,79.2,77.0,29.78,WSW,251,4.0,-999.0,93,-99.99,,,0.00,weatherlink.com 1.10,2013-09-24 23:34:00,
2013-09-24 19:49:00,78.8,77.0,29.78,SW,231,3.0,-999.0,95,-99.99,,,0.00,weatherlink.com 1.10,2013-09-24 23:49:00,
2013-09-24 20:03:00,78.6,77.0,29.78,WSW,248,5.0,-999.0,96,-99.99,,,0.00,weatherlink.com 1.10,2013-09-25 00:03:00,
2013-09-24 20:19:00,78.1,78.0,29.79,WSW,247,6.0,-999.0,98,-99.99,,,0.00,weatherlink.com 1.10,2013-09-25 00:19:00,
2013-09-24 20:49:00,77.4,77.0,29.79,West,262,10.0,-999.0,100,-99.99,,,0.00,weatherlink.com 1.10,2013-09-25 00:49:00,
2013-09-24 21:04:00,77.2,77.0,29.79,WSW,242,6.0,-999.0,100,-99.99,,,0.00,weatherlink.com 1.10,2013-09-25 01:04:00,
2013-09-24 21:19:00,77.0,77.0,29.79,WSW,246,9.0,-999.0,100,-99.99,,,0.00,weatherlink.com 1.10,2013-09-25 01:19:00,
2013-09-24 21:34:00,77.0,77.0,29.80,WSW,255,6.0,-999.0,100,-99.99,,,0.00,weatherlink.com 1.10,2013-09-25 01:34:00,
2013-09-24 22:04:00,76.8,77.0,29.78,WSW,239,6.0,-999.0,100,-99.99,,,0.00,weatherlink.com 1.10,2013-09-25 02:04:00,
2013-09-24 22:19:00,76.8,77.0,29.77,SW,230,7.0,-999.0,100,-99.99,,,0.00,weatherlink.com 1.10,2013-09-25 02:19:00,
2013-09-24 22:33:00,76.7,77.0,29.75,SW,227,6.0,-999.0,100,-99.99,,,0.00,weatherlink.com 1.10,2013-09-25 02:33:00,
2013-09-24 22:48:00,76.5,77.0,29.77,West,260,7.0,-999.0,100,-99.99,,,0.00,weatherlink.com 1.10,2013-09-25 02:48:00,
2013-09-24 23:05:00,76.5,76.0,29.77,WSW,255,5.0,-999.0,99,-99.99,,,0.00,weatherlink.com 1.10,2013-09-25 03:05:00,
2013-09-24 23:33:00,76.3,76.0,29.77,WSW,257,6.0,-999.0,98,-99.99,,,0.00,weatherlink.com 1.10,2013-09-25 03:33:00,
2013-09-24 23:49:00,76.1,76.0,29.76,WSW,242,6.0,-999.0,99,-99.99,,,0.00,weatherlink.com 1.10,2013-09-25 03:49:00,